Tracking 35334 objects as of 12-Sep-2026
HD Live streaming from Space Station
objects crossing your sky now

DELTA 1 DEB


DELTA 1 DEB is no longer on orbit


NORAD ID: 7858
Int'l Code: 1972-058AE
Launch date: July 23, 1972
Source: United States (US)
Launch site: AIR FORCE WESTERN TEST RANGE (AFWTR)
Decay date: 1981-12-28

Note: This is SATELLITE DEBRIS
Your satellite tracking list
Your tracking list is empty




NASA's NSSDC Master Catalog

Two Line Element Set (TLE):
1 07858U 72058 AE 81360.94204692  .08449361 +00000-0 +02649-2 0  9992
2 07858 098.0993 317.7132 0016956 125.9871 234.5722 15.94113827346630
Source of the keplerian elements: AFSPC